FW5778 Weather Reports


Display with metric or nautical units.
time (UTC)temp
F
wind
direction
speed
MPH
gust
MPH
rain 1hr
in
rain 24hr
in
rain mn
in
humidity
%
barometer
mb
20260905172535 79 143 8.0 18.0 0.00 0.00 0.00 21 1013.6
20260905172038 79 146 9.0 22.0 0.00 0.00 0.00 22 1013.6
20260905171538 79 122 6.0 17.0 0.00 0.00 0.00 22 1013.6
20260905171034 79 129 7.0 16.0 0.00 0.00 0.00 23 1013.7
20260905170533 78 160 7.0 15.0 0.00 0.00 0.00 24 1013.7
20260905170031 78 111 8.0 19.0 0.00 0.00 0.00 23 1013.8
20260905165530 77 153 11.0 19.0 0.00 0.00 0.00 24 1013.8
20260905165030 77 120 8.0 19.0 0.00 0.00 0.00 25 1013.7
20260905164531 77 130 8.0 19.0 0.00 0.00 0.00 25 1013.8
20260905164033 77 96 9.0 16.0 0.00 0.00 0.00 25 1013.7
20260905163529 77 111 6.0 13.0 0.00 0.00 0.00 26 1013.7
20260905163028 77 160 6.0 13.0 0.00 0.00 0.00 27 1013.8
20260905162531 77 204 6.0 14.0 0.00 0.00 0.00 26 1013.8
20260905162029 77 154 3.0 15.0 0.00 0.00 0.00 27 1013.7
20260905161525 77 110 4.0 11.0 0.00 0.00 0.00 27 1013.8
20260905161023 76 147 5.0 14.0 0.00 0.00 0.00 28 1013.8
20260905160522 75 159 6.0 15.0 0.00 0.00 0.00 28 1013.9
20260905160025 75 117 7.0 15.0 0.00 0.00 0.00 29 1013.9
20260905155523 75 181 8.0 15.0 0.00 0.00 0.00 29 1013.8
20260905155022 75 162 7.0 15.0 0.00 0.00 0.00 29 1013.8
20260905154523 74 158 8.0 13.0 0.00 0.00 0.00 31 1013.8
20260905154027 74 137 7.0 15.0 0.00 0.00 0.00 31 1013.8
20260905153523 73 148 8.0 15.0 0.00 0.00 0.00 33 1013.9
20260905153023 73 150 6.0 14.0 0.00 0.00 0.00 35 1013.9
20260905152522 73 203 9.0 15.0 0.00 0.00 0.00 35 1014.0
20260905152024 73 165 7.0 15.0 0.00 0.00 0.00 35 1014.0
20260905151522 73 158 3.0 11.0 0.00 0.00 0.00 36 1014.0
20260905151023 73 181 2.0 10.0 0.00 0.00 0.00 36 1014.0
20260905150521 73 136 1.0 9.0 0.00 0.00 0.00 36 1013.9
20260905150022 72 129 2.0 11.0 0.00 0.00 0.00 37 1014.0
20260905145522 72 144 5.0 12.0 0.00 0.00 0.00 36 1014.0
20260905145021 72 162 4.0 12.0 0.00 0.00 0.00 36 1014.0
20260905144519 72 158 4.0 8.0 0.00 0.00 0.00 35 1013.9
20260905144019 71 152 1.0 8.0 0.00 0.00 0.00 34 1014.0
20260905143519 71 164 1.0 6.0 0.00 0.00 0.00 33 1014.0
20260905143022 71 149 2.0 5.0 0.00 0.00 0.00 32 1013.9
20260905142517 70 212 2.0 5.0 0.00 0.00 0.00 33 1013.8
20260905142017 70 222 2.0 6.0 0.00 0.00 0.00 34 1013.8
20260905141525 71 162 2.0 6.0 0.00 0.00 0.00 33 1013.8
20260905141019 71 141 2.0 6.0 0.00 0.00 0.00 32 1013.7
20260905140616 71 224 1.0 5.0 0.00 0.00 0.00 32 1013.7
20260905140015 70 209 2.0 6.0 0.00 0.00 0.00 32 1013.6
20260905135514 70 185 2.0 7.0 0.00 0.00 0.00 32 1013.6
20260905135014 70 136 2.0 10.0 0.00 0.00 0.00 31 1013.4
20260905134513 70 190 2.0 10.0 0.00 0.00 0.00 30 1013.4
20260905134013 69 167 4.0 10.0 0.00 0.00 0.00 29 1013.3
20260905133511 69 191 2.0 11.0 0.00 0.00 0.00 27 1013.1
20260905133012 69 148 3.0 13.0 0.00 0.00 0.00 26 1013.0
20260905132511 69 147 4.0 13.0 0.00 0.00 0.00 26 1012.9
20260905132010 69 161 5.0 13.0 0.00 0.00 0.00 25 1012.8
20260905131514 69 173 5.0 15.0 0.00 0.00 0.00 25 1012.7
20260905131009 69 260 7.0 17.0 0.00 0.00 0.00 25 1012.6
20260905130508 69 158 7.0 17.0 0.00 0.00 0.00 26 1012.6
20260905130008 69 136 7.0 16.0 0.00 0.00 0.00 26 1012.5
20260905125506 69 193 6.0 16.0 0.00 0.00 0.00 26 1012.5
20260905125005 69 158 5.0 13.0 0.00 0.00 0.00 26 1012.5
20260905124509 69 182 5.0 15.0 0.00 0.00 0.00 25 1012.4
20260905124006 69 169 6.0 15.0 0.00 0.00 0.00 25 1012.3
20260905123504 69 159 5.0 14.0 0.00 0.00 0.00 25 1012.3
20260905123004 70 165 7.0 15.0 0.00 0.00 0.00 25 1012.4
20260905122503 70 149 6.0 15.0 0.00 0.00 0.00 25 1012.4
20260905122100 70 143 6.0 13.0 0.00 0.00 0.00 25 1012.3
20260905121559 70 171 7.0 13.0 0.00 0.00 0.00 26 1012.2
20260905121100 70 151 7.0 13.0 0.00 0.00 0.00 26 1012.2
20260905120557 69 139 5.0 13.0 0.00 0.00 0.00 28 1012.2
20260905120058 70 158 5.0 12.0 0.00 0.00 0.00 28 1012.2
20260905115557 69 160 7.0 12.0 0.00 0.00 0.00 29 1012.2
20260905115058 69 195 6.0 12.0 0.00 0.00 0.00 30 1012.2
20260905114555 69 132 6.0 12.0 0.00 0.00 0.00 31 1012.2
20260905114056 69 177 6.0 12.0 0.00 0.00 0.00 30 1012.2
20260905113555 69 178 4.0 14.0 0.00 0.00 0.00 30 1012.2
20260905113054 69 163 5.0 14.0 0.00 0.00 0.00 31 1012.2
20260905112555 69 141 5.0 13.0 0.00 0.00 0.00 31 1012.2
20260905112056 69 143 7.0 13.0 0.00 0.00 0.00 31 1012.2
20260905111553 69 135 6.0 14.0 0.00 0.00 0.00 32 1012.1
20260905111054 69 150 6.0 14.0 0.00 0.00 0.00 33 1012.1
20260905110552 69 154 6.0 14.0 0.00 0.00 0.00 33 1012.1
20260905110107 69 115 6.0 15.0 0.00 0.00 0.00 33 1012.1
20260905105552 69 162 6.0 15.0 0.00 0.00 0.00 34 1012.0
20260905105051 69 155 7.0 15.0 0.00 0.00 0.00 34 1012.0
20260905104554 69 169 6.0 15.0 0.00 0.00 0.00 35 1012.0
20260905104050 69 160 5.0 15.0 0.00 0.00 0.00 35 1012.0
20260905103552 69 107 8.0 15.0 0.00 0.00 0.00 35 1012.0
20260905103052 70 165 5.0 16.0 0.00 0.00 0.00 35 1012.0
20260905102548 70 156 6.0 16.0 0.00 0.00 0.00 35 1011.9
20260905102046 70 155 5.0 16.0 0.00 0.00 0.00 36 1011.9
20260905101601 70 152 8.0 16.0 0.00 0.00 0.00 36 1011.9
20260905101045 70 150 6.0 15.0 0.00 0.00 0.00 36 1011.9
20260905100544 70 160 6.0 15.0 0.00 0.00 0.00 36 1011.9
20260905100043 70 165 6.0 14.0 0.00 0.00 0.00 36 1011.9
20260905095541 70 174 5.0 13.0 0.00 0.00 0.00 36 1011.9
20260905095041 70 160 5.0 13.0 0.00 0.00 0.00 35 1011.8
20260905094541 70 152 6.0 12.0 0.00 0.00 0.00 36 1011.8
20260905094038 71 169 6.0 12.0 0.00 0.00 0.00 35 1011.7
20260905093538 71 172 5.0 15.0 0.00 0.00 0.00 36 1011.7
20260905093037 71 193 7.0 15.0 0.00 0.00 0.00 35 1011.6
20260905092536 71 130 7.0 12.0 0.00 0.00 0.00 35 1011.6
20260905092033 71 128 6.0 11.0 0.00 0.00 0.00 34 1011.5
20260905091532 71 150 3.0 9.0 0.00 0.00 0.00 33 1011.4
20260905091032 72 226 4.0 9.0 0.00 0.00 0.00 32 1011.5
20260905090533 72 181 5.0 14.0 0.00 0.00 0.00 30 1011.3
20260905090033 73 177 7.0 16.0 0.00 0.00 0.00 29 1011.3
20260905085530 73 174 7.0 16.0 0.00 0.00 0.00 29 1011.3
20260905085128 73 153 6.0 14.0 0.00 0.00 0.00 28 1011.2
20260905084527 73 204 6.0 14.0 0.00 0.00 0.00 26 1011.2
20260905084027 73 164 7.0 14.0 0.00 0.00 0.00 26 1011.1
20260905083527 73 159 7.0 14.0 0.00 0.00 0.00 26 1011.1
20260905083026 73 166 6.0 13.0 0.00 0.00 0.00 27 1011.0
20260905082524 73 143 7.0 15.0 0.00 0.00 0.00 27 1011.0
20260905082024 73 215 6.0 15.0 0.00 0.00 0.00 27 1010.9
20260905081528 73 167 6.0 15.0 0.00 0.00 0.00 27 1010.8
20260905081023 73 131 5.0 13.0 0.00 0.00 0.00 28 1010.8
20260905080523 72 143 7.0 13.0 0.00 0.00 0.00 28 1010.9
20260905080023 72 167 6.0 11.0 0.00 0.00 0.00 29 1010.8
20260905075522 72 122 5.0 9.0 0.00 0.00 0.00 30 1010.8
20260905075120 72 136 4.0 7.0 0.00 0.00 0.00 31 1010.7
20260905074527 73 159 4.0 15.0 0.00 0.00 0.00 31 1010.8
20260905074017 73 158 6.0 15.0 0.00 0.00 0.00 29 1010.7
20260905073517 73 138 5.0 10.0 0.00 0.00 0.00 29 1010.6
20260905073015 74 147 4.0 11.0 0.00 0.00 0.00 28 1010.5
20260905072513 74 129 5.0 11.0 0.00 0.00 0.00 27 1010.5
20260905072016 75 155 4.0 16.0 0.00 0.00 0.00 26 1010.5
20260905071517 75 139 6.0 16.0 0.00 0.00 0.00 26 1010.3
20260905071009 75 141 7.0 13.0 0.00 0.00 0.00 26 1010.3
20260905070509 75 169 6.0 13.0 0.00 0.00 0.00 26 1010.1
20260905070008 75 188 5.0 12.0 0.00 0.00 0.00 26 1010.0
20260905065510 75 175 5.0 12.0 0.00 0.00 0.00 26 1009.9
20260905065007 74 149 5.0 10.0 0.00 0.00 0.00 26 1010.0
20260905064507 75 130 4.0 9.0 0.00 0.00 0.00 26 1009.9
20260905064005 75 165 3.0 10.0 0.00 0.00 0.00 26 1009.8
20260905063504 75 179 4.0 10.0 0.00 0.00 0.00 26 1009.8
20260905063004 75 114 5.0 10.0 0.00 0.00 0.00 26 1009.7
20260905062506 75 160 4.0 9.0 0.00 0.00 0.00 26 1009.6
20260905062001 76 122 5.0 12.0 0.00 0.00 0.00 26 1009.6
20260905061609 76 136 4.0 12.0 0.00 0.00 0.00 26 1009.5
20260905061101 76 185 4.0 10.0 0.00 0.00 0.00 26 1009.5
20260905060557 76 148 3.0 13.0 0.00 0.00 0.00 26 1009.3
20260905060056 76 133 6.0 14.0 0.00 0.00 0.00 26 1009.3
20260905055555 76 168 4.0 12.0 0.00 0.00 0.00 26 1009.3
20260905055055 76 151 7.0 12.0 0.00 0.00 0.00 26 1009.1
20260905054557 76 162 4.0 13.0 0.00 0.00 0.00 25 1009.1
20260905054100 76 129 4.0 11.0 0.00 0.00 0.00 26 1009.1
20260905053555 77 129 4.0 16.0 0.00 0.00 0.00 25 1009.0
20260905053055 77 172 6.0 16.0 0.00 0.00 0.00 25 1008.9
20260905052554 77 157 5.0 13.0 0.00 0.00 0.00 25 1008.9
20260905052054 77 134 6.0 13.0 0.00 0.00 0.00 24 1008.8
20260905051554 77 136 4.0 13.0 0.00 0.00 0.00 24 1008.8
20260905051054 77 172 6.0 16.0 0.00 0.00 0.00 24 1008.8
20260905050553 77 177 7.0 16.0 0.00 0.00 0.00 24 1008.8
20260905050053 77 141 7.0 16.0 0.00 0.00 0.00 23 1008.7
20260905045553 77 141 8.0 16.0 0.00 0.00 0.00 23 1008.6
20260905045053 77 161 6.0 16.0 0.00 0.00 0.00 23 1008.7
20260905044553 77 141 5.0 16.0 0.00 0.00 0.00 23 1008.7
20260905044054 77 207 5.0 16.0 0.00 0.00 0.00 22 1008.7
20260905043552 77 166 6.0 16.0 0.00 0.00 0.00 22 1008.7
20260905043053 77 175 7.0 16.0 0.00 0.00 0.00 22 1008.7
20260905042555 77 167 7.0 16.0 0.00 0.00 0.00 22 1008.7
20260905042052 77 224 8.0 15.0 0.00 0.00 0.00 22 1008.7
20260905041554 77 166 6.0 15.0 0.00 0.00 0.00 22 1008.7
20260905041053 78 158 6.0 11.0 0.00 0.00 0.00 21 1008.6
20260905040552 78 141 6.0 14.0 0.00 0.00 0.00 21 1008.7
20260905040056 78 198 6.0 12.0 0.00 0.00 0.00 21 1008.6
20260905035551 78 193 5.0 12.0 0.00 0.00 0.00 21 1008.5
20260905035051 78 156 4.0 11.0 0.00 0.00 0.00 21 1008.4
20260905034552 78 139 2.0 15.0 0.00 0.00 0.00 21 1008.4
20260905034053 79 213 6.0 15.0 0.00 0.00 0.00 20 1008.3
20260905033550 79 161 4.0 9.0 0.00 0.00 0.00 21 1008.2
20260905033051 79 191 3.0 9.0 0.00 0.00 0.00 21 1008.2
20260905032549 79 181 4.0 10.0 0.00 0.00 0.00 21 1008.2
20260905032050 79 193 5.0 11.0 0.00 0.00 0.00 20 1008.2
20260905031553 80 207 5.0 11.0 0.00 0.00 0.00 20 1008.2
20260905031048 80 224 5.0 13.0 0.00 0.00 0.00 20 1008.2
20260905030548 80 226 5.0 13.0 0.00 0.00 0.00 20 1008.1
20260905030051 80 197 4.0 13.0 0.00 0.00 0.00 20 1008.1
20260905025547 80 139 5.0 13.0 0.00 0.00 0.00 20 1008.0
20260905025048 81 148 5.0 11.0 0.00 0.00 0.00 20 1008.0
20260905024557 81 216 5.0 12.0 0.00 0.00 0.00 21 1007.8
20260905024047 81 225 5.0 12.0 0.00 0.00 0.00 21 1007.8
20260905023548 81 235 5.0 14.0 0.00 0.00 0.00 21 1007.7
20260905023048 81 165 6.0 14.0 0.00 0.00 0.00 21 1007.6
20260905022547 81 175 6.0 14.0 0.00 0.00 0.00 21 1007.6
20260905022047 81 208 6.0 12.0 0.00 0.00 0.00 21 1007.5
20260905021547 81 151 6.0 14.0 0.00 0.00 0.00 21 1007.5
20260905021047 82 231 5.0 14.0 0.00 0.00 0.00 21 1007.5
20260905020547 82 157 6.0 18.0 0.00 0.00 0.00 21 1007.3
20260905020147 82 218 8.0 18.0 0.00 0.00 0.00 21 1007.3
20260905015546 82 149 5.0 16.0 0.00 0.00 0.00 20 1007.3
20260905015045 82 158 5.0 14.0 0.00 0.00 0.00 21 1007.2
20260905014546 83 154 5.0 17.0 0.00 0.00 0.00 20 1007.3
20260905014045 83 158 9.0 18.0 0.00 0.00 0.00 20 1007.3
20260905013549 83 158 8.0 18.0 0.00 0.00 0.00 20 1007.3
20260905013044 84 168 7.0 17.0 0.00 0.00 0.00 20 1007.3
20260905012547 84 252 6.0 18.0 0.00 0.00 0.00 20 1007.2
20260905012044 84 173 8.0 18.0 0.00 0.00 0.00 19 1007.3
20260905011544 85 213 5.0 22.0 0.00 0.00 0.00 20 1007.2
20260905011043 85 112 8.0 22.0 0.00 0.00 0.00 19 1007.2
20260905010543 85 158 8.0 21.0 0.00 0.00 0.00 19 1007.2
20260905010045 85 118 7.0 16.0 0.00 0.00 0.00 19 1007.2
20260905005543 85 139 8.0 17.0 0.00 0.00 0.00 19 1007.2
20260905005044 85 163 9.0 20.0 0.00 0.00 0.00 19 1007.2
20260905004546 85 172 8.0 20.0 0.00 0.00 0.00 19 1007.2
20260905004044 85 158 9.0 20.0 0.00 0.00 0.00 19 1007.3
20260905003541 85 188 9.0 20.0 0.00 0.00 0.00 18 1007.2
20260905003046 86 174 11.0 18.0 0.00 0.00 0.00 18 1007.2
20260905002540 86 195 9.0 20.0 0.00 0.00 0.00 18 1007.2
20260905002040 86 241 8.0 21.0 0.00 0.00 0.00 18 1007.3
20260905001539 86 151 9.0 23.0 0.00 0.00 0.00 18 1007.2
20260905001038 86 147 9.0 17.0 0.00 0.00 0.00 17 1007.3
20260905000540 86 136 8.0 21.0 0.00 0.00 0.00 17 1007.3
20260905000038 86 157 7.0 21.0 0.00 0.00 0.00 18 1007.3
20260904235538 86 211 9.0 21.0 0.00 0.00 0.00 17 1007.3
20260904235038 86 153 8.0 22.0 0.00 0.00 0.00 17 1007.3
20260904234537 86 164 11.0 22.0 0.00 0.00 0.00 16 1007.3
20260904234038 87 165 5.0 16.0 0.00 0.00 0.00 18 1007.4
20260904233536 86 210 5.0 17.0 0.00 0.00 0.00 17 1007.4
20260904233037 86 184 8.0 17.0 0.00 0.00 0.00 16 1007.4
20260904232535 86 148 8.0 20.0 0.00 0.00 0.00 16 1007.4
20260904232035 86 198 6.0 20.0 0.00 0.00 0.00 17 1007.5
20260904231537 86 153 8.0 25.0 0.00 0.00 0.00 16 1007.6
20260904231035 86 208 13.0 25.0 0.00 0.00 0.00 15 1007.6
20260904230535 86 148 7.0 28.0 0.00 0.00 0.00 16 1007.6
20260904230058 86 104 7.0 28.0 0.00 0.00 0.00 16 1007.6
20260904225535 86 143 10.0 18.0 0.00 0.00 0.00 15 1007.6
20260904225033 86 206 9.0 28.0 0.00 0.00 0.00 15 1007.7
20260904224534 87 191 6.0 28.0 0.00 0.00 0.00 16 1007.6
20260904224036 86 125 11.0 24.0 0.00 0.00 0.00 15 1007.7
20260904223536 86 213 14.0 24.0 0.00 0.00 0.00 15 1007.6
20260904223032 87 234 9.0 23.0 0.00 0.00 0.00 15 1007.7
20260904222530 86 144 5.0 20.0 0.00 0.00 0.00 16 1007.7
20260904222029 86 217 11.0 20.0 0.00 0.00 0.00 16 1007.8
20260904221631 86 172 8.0 19.0 0.00 0.00 0.00 16 1007.9
20260904221028 86 200 11.0 21.0 0.00 0.00 0.00 16 1007.9
20260904220528 86 150 7.0 21.0 0.00 0.00 0.00 16 1008.1
20260904220029 86 141 10.0 26.0 0.00 0.00 0.00 16 1008.1
20260904215527 86 147 13.0 26.0 0.00 0.00 0.00 15 1008.1
20260904215028 86 200 13.0 22.0 0.00 0.00 0.00 15 1008.2
20260904214526 85 110 13.0 22.0 0.00 0.00 0.00 15 1008.3
20260904214025 85 156 12.0 22.0 0.00 0.00 0.00 15 1008.3
20260904213525 85 139 9.0 20.0 0.00 0.00 0.00 15 1008.3
20260904213026 85 165 9.0 21.0 0.00 0.00 0.00 16 1008.5
20260904212525 85 162 9.0 24.0 0.00 0.00 0.00 15 1008.6
20260904212024 85 148 10.0 23.0 0.00 0.00 0.00 16 1008.6
20260904211523 85 131 7.0 17.0 0.00 0.00 0.00 16 1008.6
20260904211025 85 131 9.0 18.0 0.00 0.00 0.00 16 1008.7
20260904210523 85 202 9.0 18.0 0.00 0.00 0.00 15 1008.7
20260904210023 85 186 9.0 20.0 0.00 0.00 0.00 16 1008.9
20260904205523 85 146 9.0 23.0 0.00 0.00 0.00 15 1008.9
20260904205023 85 176 8.0 20.0 0.00 0.00 0.00 16 1009.0
20260904204523 84 178 11.0 20.0 0.00 0.00 0.00 16 1008.9
20260904204020 84 218 8.0 24.0 0.00 0.00 0.00 16 1009.0
20260904203520 84 230 11.0 24.0 0.00 0.00 0.00 16 1009.1
20260904203021 83 217 10.0 23.0 0.00 0.00 0.00 16 1009.0
20260904202519 84 150 8.0 23.0 0.00 0.00 0.00 16 1009.1
20260904202018 83 200 14.0 23.0 0.00 0.00 0.00 16 1009.2
20260904201518 83 214 8.0 22.0 0.00 0.00 0.00 16 1009.2
20260904201018 83 224 9.0 21.0 0.00 0.00 0.00 16 1009.4
20260904200518 83 136 10.0 22.0 0.00 0.00 0.00 17 1009.4
20260904200018 83 146 9.0 18.0 0.00 0.00 0.00 17 1009.5
20260904195516 82 186 11.0 20.0 0.00 0.00 0.00 18 1009.6
20260904195014 82 91 9.0 26.0 0.00 0.00 0.00 20 1009.7
20260904194515 82 161 13.0 26.0 0.00 0.00 0.00 19 1009.7
20260904194014 82 155 11.0 22.0 0.00 0.00 0.00 19 1009.8
20260904193515 82 200 10.0 18.0 0.00 0.00 0.00 20 1009.8
20260904193032 82 128 8.0 23.0 0.00 0.00 0.00 18 1009.9
20260904192514 82 162 7.0 28.0 0.00 0.00 0.00 18 1009.9
20260904192012 82 127 9.0 28.0 0.00 0.00 0.00 18 1009.8
20260904191512 82 207 9.0 19.0 0.00 0.00 0.00 18 1009.9
20260904191011 81 141 9.0 25.0 0.00 0.00 0.00 18 1009.9
20260904190511 81 163 11.0 25.0 0.00 0.00 0.00 18 1010.1
20260904190020 81 136 10.0 24.0 0.00 0.00 0.00 18 1010.1
20260904185509 81 117 8.0 24.0 0.00 0.00 0.00 22 1010.2
20260904185009 81 159 9.0 18.0 0.00 0.00 0.00 21 1010.2
20260904184508 81 123 9.0 24.0 0.00 0.00 0.00 19 1010.3
20260904184007 80 162 13.0 24.0 0.00 0.00 0.00 22 1010.4
20260904183507 80 191 10.0 19.0 0.00 0.00 0.00 23 1010.5
20260904183006 80 147 10.0 19.0 0.00 0.00 0.00 24 1010.6
20260904182504 79 141 10.0 20.0 0.00 0.00 0.00 24 1010.5
20260904182003 79 157 11.0 27.0 0.00 0.00 0.00 23 1010.6
20260904181503 79 192 12.0 27.0 0.00 0.00 0.00 23 1010.6
20260904181002 79 151 10.0 22.0 0.00 0.00 0.00 24 1010.6
20260904180504 79 148 10.0 18.0 0.00 0.00 0.00 24 1010.7
20260904180001 79 147 7.0 21.0 0.00 0.00 0.00 25 1010.7
20260904175600 79 134 11.0 21.0 0.00 0.00 0.00 24 1010.8
20260904175100 78 72 9.0 19.0 0.00 0.00 0.00 25 1010.6
20260904174559 78 138 9.0 20.0 0.00 0.00 0.00 25 1010.9
20260904174101 78 129 10.0 20.0 0.00 0.00 0.00 25 1010.9
20260904173557 78 123 9.0 23.0 0.00 0.00 0.00 25 1010.9
20260904173059 78 124 12.0 23.0 0.00 0.00 0.00 25 1011.0